Location: Boiro
(42.6475°N, 8.8834°W)
Time: 04:33:24
(UTC+02:00)

N. Korean satellite - Visible Passes

Search period start: 17 October 2021 00:00
Search period end: 27 October 2021 00:00
Orbit: 450 x 495 km, 97.3° (Epoch: 16 October)

Date Brightness Start Highest point End Pass type
(mag) Time Alt. Az. Time Alt. Az. Time Alt. Az.
17 Oct 7.0 07:45:38 10° NNE 07:49:17 66° E 07:52:54 10° S visible
18 Oct 8.8 07:17:57 10° NE 07:21:10 28° E 07:24:22 10° SSE visible
19 Oct 10.0 06:51:05 10° ENE 06:52:56 13° E 06:54:46 10° ESE visible
20 Oct 6.6 07:54:39 10° NNE 07:58:21 87° ESE 08:01:59 10° SSW visible
21 Oct 8.3 07:26:49 10° NNE 07:30:14 36° E 07:33:37 10° SSE visible
22 Oct 9.7 06:59:32 10° NE 07:02:00 17° E 07:04:26 10° SE visible
23 Oct 6.5 08:03:38 10° N 08:07:18 71° WNW 08:10:54 10° SSW visible
23 Oct 10.3 20:13:46 10° WSW 20:15:10 12° W 20:16:35 10° WNW visible
24 Oct 7.7 07:35:38 10° NNE 07:39:11 48° E 07:42:41 10° S visible
25 Oct 9.3 07:08:05 10° NE 07:10:58 21° E 07:13:47 10° SE visible
26 Oct 6.7 08:12:33 10° N 08:16:08 53° WNW 08:19:39 10° SSW visible
